{"data":{"norad_id":66477,"intl_designator":"2025-262X","name":"STARLINK-35354","alt_names":[],"object_type":"PAYLOAD","status":"ACTIVE","operator":null,"country":"US","launch_date":"2025-11-15","launch_site_code":"AFETR","launch_vehicle":null,"mission":null,"orbit_class":"UNKNOWN","rcs_meters":null,"size_class":null,"mass_kg":null,"dimensions":null,"purposes":["comms"],"wikipedia_slug":null,"has_3d_model":false,"image_url":null,"decayed_at":null,"tle_current":{"epoch":"2026-09-20T07:30:16.778016Z","epoch_age_seconds":105519,"freshness":"FRESH","line1":"1 66477U 25262X   26263.31269419  .00009903  00000+0  36880-3 0  9999","line2":"2 66477  43.0010 276.8502 0001444 270.4619  89.6067 15.27588637 48675","mean_motion":15.27588637,"eccentricity":0.0001444,"inclination_deg":43.001,"raan_deg":276.8502,"arg_perigee_deg":270.4619,"mean_anomaly_deg":89.6067,"bstar":0.0003688,"rev_number":4867,"period_min":94.2662157286,"perigee_km":482.03248233859,"apogee_km":484.01398541413,"semimajor_km":6861.1602338764,"source":"CELESTRAK","updated_at":"2026-09-21T09:00:35.916781Z"}}}